| time (UTC) | temp C | wind direction | speed KPH | gust KPH | rain 1hr cm | rain 24hr cm | rain mn cm | humidity % | barometer mb |
| 20260503185108 | 21 | 356 | 6.4 | 9.7 | 0.00 | 0.00 | 0.00 | 43 | 1017.6 |
| 20260503183106 | 21 | 267 | 4.8 | 8.0 | 0.00 | 0.00 | 0.00 | 41 | 1017.7 |
| 20260503181101 | 21 | 183 | 3.2 | 4.8 | 0.00 | 0.00 | 0.00 | 43 | 1017.8 |
| 20260503175056 | 20 | 152 | 0.0 | 9.7 | 0.00 | 0.00 | 0.00 | 46 | 1018.1 |
| 20260503173053 | 20 | 87 | 0.0 | 1.6 | 0.00 | 0.00 | 0.00 | 46 | 1018.1 |
| 20260503171053 | 19 | 138 | 1.6 | 3.2 | 0.00 | 0.00 | 0.00 | 46 | 1018.6 |
| 20260503131030 | 12 | 78 | 0.0 | 1.6 | 0.00 | 0.00 | 0.00 | 70 | 1019.0 |
| 20260503081000 | 7 | 135 | 0.0 | 0.0 | 0.00 | 0.00 | 0.00 | 99 | 1015.9 |
| 20260503070955 | 8 | 135 | 0.0 | 0.0 | 0.00 | 0.00 | 0.00 | 99 | 1015.1 |
| 20260503054945 | 10 | 135 | 0.0 | 0.0 | 0.00 | 0.00 | 0.00 | 99 | 1014.8 |
| 20260503052944 | 10 | 135 | 0.0 | 0.0 | 0.00 | 0.00 | 0.00 | 99 | 1015.0 |
| 20260503050943 | 10 | 136 | 0.0 | 0.0 | 0.00 | 0.00 | 0.00 | 99 | 1014.8 |
| 20260503044942 | 10 | 135 | 0.0 | 0.0 | 0.00 | 0.00 | 0.00 | 99 | 1015.0 |
| 20260503042940 | 10 | 132 | 0.0 | 0.0 | 0.00 | 0.00 | 0.00 | 99 | 1014.8 |
| 20260503040940 | 10 | 133 | 0.0 | 0.0 | 0.00 | 0.00 | 0.00 | 99 | 1014.8 |
| 20260503034935 | 11 | 126 | 0.0 | 0.0 | 0.00 | 1.83 | 1.83 | 99 | 1014.5 |
| 20260503032930 | 11 | 126 | 0.0 | 0.0 | 0.00 | 1.83 | 1.83 | 99 | 1014.4 |
| 20260503030926 | 11 | 93 | 0.0 | 0.0 | 0.00 | 1.83 | 1.83 | 99 | 1014.0 |
| 20260503024925 | 11 | 93 | 0.0 | 0.0 | 0.00 | 1.83 | 1.83 | 99 | 1013.8 |
| 20260503022925 | 10 | 93 | 0.0 | 0.0 | 0.00 | 1.83 | 1.83 | 99 | 1013.2 |
| 20260503020921 | 10 | 93 | 0.0 | 0.0 | 0.00 | 1.83 | 1.83 | 99 | 1013.3 |
| 20260503014920 | 10 | 93 | 0.0 | 0.0 | 0.00 | 1.83 | 1.83 | 99 | 1012.9 |
| 20260503012915 | 10 | 93 | 0.0 | 0.0 | 0.00 | 1.83 | 1.83 | 99 | 1012.4 |
| 20260503010915 | 11 | 93 | 0.0 | 0.0 | 0.00 | 1.83 | 1.83 | 99 | 1012.6 |
| 20260503004914 | 11 | 93 | 0.0 | 0.0 | 0.00 | 1.83 | 1.83 | 97 | 1012.3 |
| 20260503002914 | 12 | 93 | 0.0 | 0.0 | 0.00 | 1.83 | 1.83 | 95 | 1012.0 |
| 20260503000914 | 12 | 93 | 0.0 | 0.0 | 0.00 | 1.83 | 1.83 | 92 | 1011.6 |
| 20260502234914 | 13 | 93 | 0.0 | 0.0 | 0.00 | 1.83 | 1.83 | 90 | 1011.3 |
| 20260502232912 | 13 | 93 | 0.0 | 0.0 | 0.00 | 1.83 | 1.83 | 90 | 1011.5 |
| 20260502230912 | 13 | 92 | 0.0 | 0.0 | 0.00 | 1.83 | 1.83 | 87 | 1011.1 |
| 20260502224907 | 13 | 83 | 0.0 | 0.0 | 0.00 | 1.83 | 1.83 | 86 | 1011.0 |
| 20260502222901 | 13 | 78 | 0.0 | 0.0 | 0.00 | 1.83 | 1.83 | 87 | 1011.3 |
| 20260502220859 | 13 | 63 | 0.0 | 1.6 | 0.00 | 1.83 | 1.83 | 87 | 1011.0 |
| 20260502214857 | 13 | 80 | 0.0 | 0.0 | 0.00 | 1.83 | 1.83 | 88 | 1010.9 |
| 20260502212852 | 13 | 80 | 0.0 | 0.0 | 0.00 | 1.83 | 1.83 | 90 | 1010.8 |
| 20260502210852 | 12 | 71 | 0.0 | 0.0 | 0.00 | 1.83 | 1.83 | 92 | 1010.6 |
| 20260502204850 | 12 | 72 | 1.6 | 1.6 | 0.00 | 1.83 | 1.83 | 91 | 1010.5 |
| 20260502202849 | 12 | 93 | 0.0 | 0.0 | 0.00 | 1.83 | 1.83 | 94 | 1011.0 |
| 20260502200848 | 12 | 80 | 0.0 | 1.6 | 0.00 | 1.83 | 1.83 | 93 | 1011.2 |
| 20260502194847 | 13 | 92 | 0.0 | 0.0 | 0.00 | 1.83 | 1.83 | 92 | 1011.3 |
| 20260502192844 | 12 | 83 | 0.0 | 0.0 | 0.00 | 1.83 | 1.83 | 92 | 1011.2 |
| 20260502190839 | 11 | 61 | 1.6 | 3.2 | 0.00 | 1.83 | 1.83 | 99 | 1010.9 |